FW4557 Weather Reports


Display with metric or nautical units.
time (UTC)temp
F
wind
direction
speed
MPH
gust
MPH
rain 1hr
in
rain 24hr
in
rain mn
in
humidity
%
barometer
mb
20210619061020 76 138 5.0 7.0 0.00 0.00 0.00 32 1013.9
20210619060019 76 147 6.0 7.0 0.00 0.00 0.00 31 1013.9
20210619055019 77 133 5.0 8.0 0.00 0.00 0.00 31 1013.9
20210619054019 77 148 5.0 6.0 0.00 0.00 0.00 30 1013.9
20210619053018 77 138 5.0 8.0 0.00 0.00 0.00 30 1013.9
20210619052018 77 147 5.0 7.0 0.00 0.00 0.00 30 1013.9
20210619051018 77 146 5.0 7.0 0.00 0.00 0.00 30 1013.9
20210619050017 77 125 4.0 5.0 0.00 0.00 0.00 29 1013.9
20210619045017 78 124 5.0 6.0 0.00 0.00 0.00 27 1012.9
20210619044017 78 136 5.0 9.0 0.00 0.00 0.00 25 1012.9
20210619043017 79 133 6.0 7.0 0.00 0.00 0.00 24 1012.9
20210619042017 79 139 5.0 9.0 0.00 0.00 0.00 24 1012.9
20210619041016 80 152 7.0 10.0 0.00 0.00 0.00 23 1012.9
20210619040016 80 146 8.0 10.0 0.00 0.00 0.00 23 1012.9
20210619035015 80 152 5.0 9.0 0.00 0.00 0.00 22 1012.9
20210619034015 80 120 7.0 8.0 0.00 0.00 0.00 22 1012.9
20210619033015 81 151 7.0 9.0 0.00 0.00 0.00 22 1012.9
20210619032014 81 132 7.0 13.0 0.00 0.00 0.00 21 1012.9
20210619031015 82 126 6.0 14.0 0.00 0.00 0.00 21 1012.9
20210619030014 82 142 9.0 9.0 0.00 0.00 0.00 21 1011.9
20210619025014 82 154 7.0 10.0 0.00 0.00 0.00 21 1011.9
20210619024013 82 135 10.0 10.0 0.00 0.00 0.00 21 1011.9
20210619023013 83 132 6.0 9.0 0.00 0.00 0.00 21 1011.9
20210619022013 83 143 7.0 7.0 0.00 0.00 0.00 20 1011.9
20210619021012 84 161 5.0 7.0 0.00 0.00 0.00 20 1011.9
20210619020012 85 144 4.0 7.0 0.00 0.00 0.00 19 1011.9
20210619015012 85 132 5.0 9.0 0.00 0.00 0.00 19 1011.9
20210619014012 86 146 7.0 8.0 0.00 0.00 0.00 18 1011.9
20210619013011 86 154 6.0 10.0 0.00 0.00 0.00 18 1011.9
20210619012011 87 128 5.0 11.0 0.00 0.00 0.00 18 1011.9
20210619011011 88 123 6.0 11.0 0.00 0.00 0.00 18 1011.9
20210619010011 88 129 6.0 15.0 0.00 0.00 0.00 18 1010.9
20210619005010 89 146 7.0 13.0 0.00 0.00 0.00 18 1010.9
20210619004009 89 138 11.0 16.0 0.00 0.00 0.00 18 1010.9
20210619003009 89 115 9.0 13.0 0.00 0.00 0.00 17 1010.9
20210619002009 90 139 11.0 15.0 0.00 0.00 0.00 17 1010.9
20210619001009 90 153 11.0 15.0 0.00 0.00 0.00 17 1010.9
20210619000008 90 147 11.0 16.0 0.00 0.00 0.00 17 1010.9
20210618235008 91 141 8.0 15.0 0.00 0.00 0.00 17 1010.9
20210618234008 91 137 9.0 13.0 0.00 0.00 0.00 17 1010.9
20210618233008 91 174 9.0 14.0 0.00 0.00 0.00 17 1010.9
20210618232008 91 181 10.0 15.0 0.00 0.00 0.00 17 1010.9
20210618231037 92 125 13.0 15.0 0.00 0.00 0.00 17 1010.9
20210618230037 92 139 10.0 14.0 0.00 0.00 0.00 17 1011.9
20210618225036 92 124 9.0 15.0 0.00 0.00 0.00 17 1011.9
20210618224036 92 171 11.0 13.0 0.00 0.00 0.00 17 1011.9
20210618223036 92 113 12.0 17.0 0.00 0.00 0.00 17 1011.9
20210618222036 93 177 16.0 17.0 0.00 0.00 0.00 16 1011.9
20210618221035 93 136 10.0 14.0 0.00 0.00 0.00 16 1011.9
20210618220035 93 68 8.0 11.0 0.00 0.00 0.00 16 1011.9
20210618215035 94 151 8.0 13.0 0.00 0.00 0.00 14 1011.9
20210618214034 96 149 6.0 9.0 0.00 0.00 0.00 16 1011.9
20210618213034 94 125 9.0 13.0 0.00 0.00 0.00 16 1011.9
20210618212034 95 107 10.0 11.0 0.00 0.00 0.00 16 1011.9
20210618211033 94 133 4.0 14.0 0.00 0.00 0.00 16 1011.9
20210618210033 95 130 6.0 13.0 0.00 0.00 0.00 16 1011.9
20210618205033 94 169 10.0 11.0 0.00 0.00 0.00 16 1012.9
20210618204034 96 128 7.0 10.0 0.00 0.00 0.00 16 1012.9
20210618203032 96 203 7.0 12.0 0.00 0.00 0.00 16 1012.9
20210618202032 98 75 5.0 10.0 0.00 0.00 0.00 16 1012.9
20210618201032 102 125 5.0 10.0 0.00 0.00 0.00 14 1012.9
20210618200032 100 238 6.0 9.0 0.00 0.00 0.00 15 1012.9
20210618195031 100 228 8.0 13.0 0.00 0.00 0.00 15 1012.9
20210618194031 102 194 0.0 8.0 0.00 0.00 0.00 15 1012.9
20210618193031 99 184 6.0 7.0 0.00 0.00 0.00 15 1013.9
20210618192030 99 130 4.0 10.0 0.00 0.00 0.00 15 1013.9
20210618191030 100 56 4.0 10.0 0.00 0.00 0.00 15 1013.9
20210618190030 99 210 7.0 8.0 0.00 0.00 0.00 15 1013.9
20210618185029 96 53 7.0 12.0 0.00 0.00 0.00 16 1013.9
20210618184029 102 135 6.0 10.0 0.00 0.00 0.00 15 1013.9
20210618183029 101 116 7.0 8.0 0.00 0.00 0.00 15 1013.9
20210618182028 105 139 5.0 7.0 0.00 0.00 0.00 14 1013.9
20210618181029 103 301 7.0 11.0 0.00 0.00 0.00 15 1013.9
20210618180028 103 218 7.0 9.0 0.00 0.00 0.00 15 1014.9
20210618175028 99 318 0.0 5.0 0.00 0.00 0.00 16 1014.9
20210618174027 98 189 5.0 8.0 0.00 0.00 0.00 16 1014.9
20210618173027 101 70 5.0 7.0 0.00 0.00 0.00 16 1014.9
20210618172027 101 337 5.0 7.0 0.00 0.00 0.00 16 1014.9
20210618171026 101 307 5.0 7.0 0.00 0.00 0.00 16 1014.9
20210618170026 100 43 0.0 8.0 0.00 0.00 0.00 16 1014.9
20210618165026 97 338 6.0 10.0 0.00 0.00 0.00 17 1014.9
20210618164025 103 151 6.0 7.0 0.00 0.00 0.00 16 1014.9
20210618163026 104 308 0.0 5.0 0.00 0.00 0.00 16 1014.9
20210618162025 100 205 3.0 7.0 0.00 0.00 0.00 16 1014.9
20210618161025 99 209 3.0 6.0 0.00 0.00 0.00 17 1014.9
20210618160025 98 303 4.0 7.0 0.00 0.00 0.00 17 1014.9
20210618155024 97 267 5.0 9.0 0.00 0.00 0.00 18 1014.9
20210618154023 99 288 6.0 7.0 0.00 0.00 0.00 17 1014.9
20210618153023 99 301 4.0 7.0 0.00 0.00 0.00 17 1015.9
20210618152023 101 329 5.0 7.0 0.00 0.00 0.00 17 1015.9
20210618151023 103 297 5.0 6.0 0.00 0.00 0.00 17 1015.9
20210618150023 101 218 0.0 5.0 0.00 0.00 0.00 17 1015.9
20210618145022 101 301 0.0 6.0 0.00 0.00 0.00 18 1015.9
20210618144022 99 268 4.0 5.0 0.00 0.00 0.00 18 1015.9
20210618143022 95 21 0.0 4.0 0.00 0.00 0.00 20 1015.9
20210618142022 94 21 0.0 5.0 0.00 0.00 0.00 20 1015.9
20210618141021 94 21 0.0 0.0 0.00 0.00 0.00 20 1015.9
20210618140021 96 21 0.0 0.0 0.00 0.00 0.00 20 1014.9
20210618135021 96 47 0.0 7.0 0.00 0.00 0.00 19 1014.9
20210618134020 93 47 4.0 5.0 0.00 0.00 0.00 21 1014.9
20210618133020 91 48 3.0 5.0 0.00 0.00 0.00 22 1014.9
20210618132020 89 60 5.0 5.0 0.00 0.00 0.00 25 1014.9
20210618131019 88 63 4.0 6.0 0.00 0.00 0.00 29 1014.9
20210618130019 87 56 5.0 7.0 0.00 0.00 0.00 39 1014.9
20210618125019 86 342 0.0 0.0 0.00 0.00 0.00 52 1014.9
20210618124018 83 342 0.0 0.0 0.00 0.00 0.00 61 1014.9
20210618123018 79 342 0.0 0.0 0.00 0.00 0.00 63 1014.9
20210618122018 77 342 0.0 0.0 0.00 0.00 0.00 64 1014.9
20210618121017 74 342 0.0 0.0 0.00 0.00 0.00 63 1014.9
20210618120017 72 342 0.0 0.0 0.00 0.00 0.00 62 1014.9
20210618115017 71 342 0.0 0.0 0.00 0.00 0.00 62 1014.9
20210618114017 71 342 0.0 0.0 0.00 0.00 0.00 61 1014.9
20210618113017 71 342 0.0 3.0 0.00 0.00 0.00 61 1014.9
20210618112016 71 342 3.0 6.0 0.00 0.00 0.00 61 1014.9
20210618111016 71 342 3.0 5.0 0.00 0.00 0.00 61 1014.9
20210618110016 71 342 4.0 5.0 0.00 0.00 0.00 60 1014.9
20210618105015 71 342 3.0 4.0 0.00 0.00 0.00 60 1014.9
20210618104015 71 342 3.0 5.0 0.00 0.00 0.00 59 1014.9
20210618103015 72 342 3.0 7.0 0.00 0.00 0.00 59 1014.9
20210618102014 72 342 7.0 7.0 0.00 0.00 0.00 58 1014.9
20210618101014 72 23 5.0 6.0 0.00 0.00 0.00 58 1014.9
20210618100013 72 23 4.0 5.0 0.00 0.00 0.00 58 1014.9
20210618095013 72 43 0.0 5.0 0.00 0.00 0.00 58 1014.9
20210618094013 72 43 3.0 6.0 0.00 0.00 0.00 57 1014.9
20210618093013 72 43 3.0 6.0 0.00 0.00 0.00 57 1014.9
20210618092012 72 43 0.0 0.0 0.00 0.00 0.00 56 1014.9
20210618091012 72 43 0.0 6.0 0.00 0.00 0.00 56 1014.9
20210618090011 73 43 4.0 6.0 0.00 0.00 0.00 55 1014.9
20210618085012 72 38 3.0 6.0 0.00 0.00 0.00 55 1014.9
20210618084012 73 38 4.0 7.0 0.00 0.00 0.00 53 1014.9
20210618083011 73 151 4.0 5.0 0.00 0.00 0.00 51 1014.9
20210618082011 73 151 3.0 3.0 0.00 0.00 0.00 49 1014.9
20210618081011 74 151 0.0 0.0 0.00 0.00 0.00 49 1014.9
20210618080010 74 151 0.0 0.0 0.00 0.00 0.00 49 1014.9
20210618075010 74 151 0.0 4.0 0.00 0.00 0.00 49 1014.9
20210618074009 74 151 3.0 4.0 0.00 0.00 0.00 48 1014.9
20210618073009 74 151 0.0 0.0 0.00 0.00 0.00 47 1014.9
20210618072009 74 151 0.0 3.0 0.00 0.00 0.00 46 1014.9
20210618071009 74 151 3.0 4.0 0.00 0.00 0.00 46 1014.9
20210618070009 74 151 0.0 0.0 0.00 0.00 0.00 45 1014.9
20210618065008 74 151 0.0 0.0 0.00 0.00 0.00 43 1014.9
20210618064008 74 151 0.0 0.0 0.00 0.00 0.00 42 1014.9
20210618063007 75 151 0.0 4.0 0.00 0.00 0.00 41 1014.9
20210618062007 75 151 3.0 3.0 0.00 0.00 0.00 40 1014.9